Orbital Elements at Epoch 2459200.5 (2020-Dec-17.0) TDB
Reference: JPL 20 (heliocentric ecliptic J2000)
Element | Value | Uncertainty (1-sigma) | Units |
e | .1773608615718794 | 3.2085e-08 | |
a | 2.451316991834504 | 1.1502e-08 | au |
q | 2.016549298176948 | 8.1261e-08 | au |
i | 6.346713735259095 | 4.0712e-06 | deg |
node | 218.912802237678 | 4.1749e-05 | deg |
peri | 207.1050073631253 | 4.4301e-05 | deg |
M | 63.05091098398471 | 1.6261e-05 | deg |
tp | 2458954.980209205680 (2020-Apr-15.48020921) | 6.2717e-05 | TDB |
period | 1401.837393093435 3.84 | 9.8662e-06 2.701e-08 | d yr |
n | .256805819115431 | 1.8074e-09 | deg/d |
Q | 2.886084685492059 | 1.3542e-08 | au |
|
| | Orbit Determination Parameters
Additional Information
|